Eads, CO

12:53 AM MST on January 17, 2017 (GMT -0700)
Kit Carson | | Change Station

Elev 4301 ft 38.77 °N, 102.79 °W | Updated 14 seconds ago

Overcast
Overcast
31.2 °F
Feels Like 26 °F
N
4.7
Wind Variable Wind from WNW
Gusts 6.0 mph

Today
High -- | Low -- °F
--% Chance of Precip.
Yesterday
High -- | Low -- °F
Precip. -- in
Pressure 30.13 in
Visibility 1.8 miles
Clouds Overcast 1900 ft
Windchill 26 °F
Dew Point 26 °F
Humidity 84%
Rainfall 0.00 in
Snow Depth Not available.
7:06 AM 4:56 PM
Waning Gibbous, 74% visible
SPECI KLAA 170740Z AUTO 26007KT 1 3/4SM -SN BR OVC019 01/M01 A3013 RMK AO2 P0001 T00061006 TSNO
Pressure 30.13 in
Visibility 1.8 miles
Clouds Overcast 1900 ft
Windchill 26 °F
Dew Point 26 °F
Humidity 84%
Rainfall 0.00 in
Snow Depth Not available.
7:06 AM 4:56 PM
Waning Gibbous, 74% visible
SPECI KLAA 170740Z AUTO 26007KT 1 3/4SM -SN BR OVC019 01/M01 A3013 RMK AO2 P0001 T00061006 TSNO

Get Your Daily Forecast Email!

Thanks for signing up!

Be on the lookout for a verification email in your inbox.

You'll start receiving the daily forecast at 8 AM.

×

10-Day Weather Forecast

Almanac

Astronomy

Jan. 17, 2017 Rise Set
Actual Time
Civil Twilight
Nautical Twilight
Astronomical Twilight
Moon
Length of Visible Light
Length of Day
Tomorrow will be .
, % of the Moon is Illuminated

Today's Extremes

State Highs State Lows

Community

WunderPhotos

Upload Photos

1,962,540 photos uploaded!

WunderBlog® & News

Nearby

Air Quality

  Air Quality AQ Index Pollutant
Not available.

Snow Depth

Station Depth Elevation

Earthquake Activity

City Distance Mag. Time & Date
Minimum magnitude displayed is 2.5.

Coastal Water Temperatures

Place Temperature

Stations

Nearby Weather Stations

Station Location Temp. Windchill Dew Point Humidity Wind Precip. Elev Updated Type
                   

Watches & Warnings

There are currently no watches in effect.